Grand Forks AFB, ND

10:36 PM CST on January 17, 2018 (GMT -0600)
Grand Forks Air Force Base

Weather History for KRDR - April, 2014

Change the Weather History Date:

Thursday, April 3, 2014

  Actual Average Record
Temperature  
Mean Temperature 26 °F -  
Max Temperature 32 °F 41 °F 60 °F (2005)
Min Temperature 20 °F 24 °F 10 °F (2015)
Degree Days  
Heating Degree Days 39    
Moisture  
Dew Point 23 °F    
Average Humidity 93    
Maximum Humidity 100    
Minimum Humidity 68    
Precipitation  
Precipitation 0.00 in - - ()
Sea Level Pressure  
Sea Level Pressure 30.07 in    
Wind  
Wind Speed 6 mph (North)    
Max Wind Speed 15 mph    
Max Gust Speed -    
Visibility 6 miles    
Events Snow    
Averages and records for this station are not official NWS values.
T = Trace of Precipitation, MM = Missing Value Source: NWS Daily Summary

Daily Weather History Graph

Daily Weather History Graph

Search for Another Location

Airport or City:

Trip Planner

Search our weather history database for the weather conditions in past years. The results will help you decide how hot, cold, wet, or windy it might be!

Date:

Astronomy

Apr. 03, 2014 Rise Set
Actual Time 7:03 AM CDT 8:02 PM CDT
Civil Twilight 6:32 AM CDT 8:34 PM CDT
Nautical Twilight 5:54 AM CDT 9:12 PM CDT
Astronomical Twilight 5:14 AM CDT 9:52 PM CDT
Moon 9:19 AM CDT (4/3) No Moon Set
Length of Visible Light 14h 02m
Length of Day
12h 58m
Waxing Crescent, 17% of the Moon is Illuminated
Apr 3
Waxing Crescent
Apr 7
First Quarter
Apr 15
Full
Apr 22
Last Quarter
Apr 29
New

Hourly Weather History & Observations

Time (CDT) Temp. Windchill Dew Point Humidity Pressure Visibility Wind Dir Wind Speed Gust Speed Precip Events Conditions
12:58 AM 21.7 °F 15.5 °F 14.0 °F 72% 30.19 in 10.0 mi North 4.6 mph - N/A   Scattered Clouds
1:14 AM 21.2 °F 13.6 °F 14.0 °F 74% 30.12 in 10.0 mi North 5.8 mph - N/A Snow Light Snow
1:44 AM 23.0 °F 17.0 °F 14.0 °F 68% 30.11 in 10.0 mi NNE 4.6 mph - N/A Snow Light Snow
1:58 AM 22.3 °F 16.1 °F 14.7 °F 73% 30.17 in 10.0 mi NNE 4.6 mph - 0.00 in Snow Light Snow
2:28 AM 21.2 °F 16.4 °F 15.8 °F 80% 30.11 in 10.0 mi North 3.5 mph - N/A Snow Light Snow
2:32 AM 21.2 °F 14.9 °F 15.8 °F 80% 30.11 in 10.0 mi North 4.6 mph - N/A   Overcast
2:55 AM 21.2 °F 13.6 °F 15.8 °F 80% 30.10 in 10.0 mi NNW 5.8 mph - N/A Snow Light Snow
2:58 AM 21.9 °F 14.5 °F 15.4 °F 76% 30.16 in 10.0 mi NNW 5.8 mph - 0.00 in Snow Light Snow
3:08 AM 21.2 °F 13.6 °F 15.8 °F 80% 30.09 in 10.0 mi North 5.8 mph - N/A Snow Light Snow
3:18 AM 21.2 °F 13.6 °F 15.8 °F 80% 30.09 in 7.0 mi North 5.8 mph - N/A Snow Light Snow
3:33 AM 21.2 °F 12.6 °F 17.6 °F 86% 30.09 in 4.0 mi North 6.9 mph - N/A Snow Light Snow
3:58 AM 20.7 °F 11.9 °F 18.5 °F 91% 30.14 in 2.5 mi North 6.9 mph - 0.00 in Snow Light Snow
4:18 AM 21.2 °F 11.7 °F 19.4 °F 93% 30.08 in 4.0 mi North 8.1 mph - N/A Snow Light Snow
4:23 AM 21.2 °F 12.6 °F 19.4 °F 93% 30.07 in 6.0 mi North 6.9 mph - N/A Snow Light Snow
4:24 AM 21.2 °F 12.6 °F 19.4 °F 93% 30.07 in 6.0 mi North 6.9 mph - N/A Snow Light Snow
4:29 AM 21.2 °F 12.6 °F 19.4 °F 93% 30.08 in 6.0 mi North 6.9 mph - N/A Snow Light Snow
4:39 AM 21.2 °F 12.6 °F 19.4 °F 93% 30.08 in 4.0 mi North 6.9 mph - N/A Snow Light Snow
4:44 AM 21.2 °F 12.6 °F 19.4 °F 93% 30.07 in 2.5 mi North 6.9 mph - N/A Snow Light Snow
4:54 AM 21.2 °F 12.6 °F 19.4 °F 93% 30.07 in 3.0 mi North 6.9 mph - N/A Snow Light Snow
4:58 AM 20.7 °F 11.9 °F 19.2 °F 94% 30.13 in 3.0 mi North 6.9 mph - 0.00 in Snow Light Snow
5:08 AM 21.2 °F 12.6 °F 19.4 °F 93% 30.07 in 2.5 mi North 6.9 mph - N/A Snow Light Snow
5:18 AM 21.2 °F 13.6 °F 19.4 °F 93% 30.07 in 3.0 mi North 5.8 mph - N/A Snow Light Snow
5:33 AM 21.2 °F 12.6 °F 19.4 °F 93% 30.07 in 5.0 mi North 6.9 mph - N/A Snow Light Snow
5:58 AM 21.0 °F 10.6 °F 19.8 °F 95% 30.12 in 8.0 mi North 9.2 mph - 0.00 in Snow Light Snow
6:03 AM 21.2 °F 11.7 °F 19.4 °F 93% 30.07 in 8.0 mi North 8.1 mph - N/A Snow Light Snow
6:08 AM 21.2 °F 11.7 °F 19.4 °F 93% 30.07 in 9.0 mi North 8.1 mph - N/A Snow Light Snow
6:10 AM 21.2 °F 12.6 °F 19.4 °F 93% 30.07 in 10.0 mi North 6.9 mph - N/A Snow Light Snow
6:15 AM 21.2 °F 12.6 °F 19.4 °F 93% 30.07 in 8.0 mi North 6.9 mph - N/A Snow Light Snow
6:20 AM 21.2 °F 12.6 °F 19.4 °F 93% 30.07 in 7.0 mi North 6.9 mph - N/A Snow Light Snow
6:35 AM 21.2 °F 14.9 °F 19.4 °F 93% 30.08 in 4.0 mi North 4.6 mph - N/A Snow Light Snow
6:50 AM 21.2 °F 13.6 °F 21.2 °F 100% 30.08 in 3.0 mi North 5.8 mph - N/A Snow Light Snow
6:55 AM 21.2 °F 14.9 °F 21.2 °F 100% 30.08 in 2.5 mi North 4.6 mph - N/A Snow Light Snow
6:58 AM 21.4 °F 15.1 °F 20.5 °F 96% 30.14 in 2.0 mi North 4.6 mph - 0.00 in Snow Light Snow
7:03 AM 21.2 °F 14.9 °F 21.2 °F 100% 30.08 in 1.2 mi North 4.6 mph - N/A Snow Light Snow
7:08 AM 21.2 °F 14.9 °F 21.2 °F 100% 30.08 in 1.0 mi North 4.6 mph - N/A Snow Light Snow
7:18 AM 21.2 °F 13.6 °F 21.2 °F 100% 30.07 in 1.2 mi North 5.8 mph - N/A Snow Light Snow
7:23 AM 21.2 °F 13.6 °F 21.2 °F 100% 30.07 in 1.8 mi North 5.8 mph - N/A Snow Light Snow
7:28 AM 21.2 °F 13.6 °F 21.2 °F 100% 30.07 in 2.0 mi North 5.8 mph - N/A Snow Light Snow
7:38 AM 21.2 °F 12.6 °F 21.2 °F 100% 30.07 in 3.0 mi NNE 6.9 mph - N/A Snow Light Snow
7:58 AM 22.1 °F 14.7 °F 21.2 °F 96% 30.13 in 6.0 mi NNE 5.8 mph - 0.00 in Snow Light Snow
8:08 AM 23.0 °F 15.8 °F 21.2 °F 93% 30.07 in 10.0 mi North 5.8 mph - N/A Snow Light Snow
8:20 AM 23.0 °F 15.8 °F 21.2 °F 93% 30.08 in 8.0 mi North 5.8 mph - N/A Snow Light Snow
8:25 AM 23.0 °F 15.8 °F 21.2 °F 93% 30.08 in 7.0 mi North 5.8 mph - N/A Snow Light Snow
8:50 AM 23.0 °F 15.8 °F 21.2 °F 93% 30.07 in 1.8 mi NNE 5.8 mph - N/A Snow Light Snow
8:58 AM 23.4 °F 17.4 °F 22.1 °F 95% 30.13 in 1.5 mi NNE 4.6 mph - 0.00 in Snow Light Snow
9:08 AM 23.0 °F 14.7 °F 23.0 °F 100% 30.06 in 2.0 mi North 6.9 mph - N/A Snow Light Snow
9:18 AM 24.8 °F 17.9 °F 23.0 °F 93% 30.06 in 3.0 mi North 5.8 mph - N/A Snow Light Snow
9:23 AM 24.8 °F 19.1 °F 23.0 °F 93% 30.06 in 2.5 mi North 4.6 mph - N/A Snow Light Snow
9:28 AM 24.8 °F 17.9 °F 23.0 °F 93% 30.06 in 3.0 mi North 5.8 mph - N/A Snow Light Snow
9:43 AM 24.8 °F 16.9 °F 23.0 °F 93% 30.05 in 2.5 mi NNE 6.9 mph - N/A Snow Light Snow
9:48 AM 24.8 °F 16.9 °F 24.8 °F 100% 30.05 in 3.0 mi NNE 6.9 mph - N/A Snow Light Snow
9:58 AM 25.7 °F 18.0 °F 24.1 °F 94% 30.11 in 3.0 mi NE 6.9 mph - 0.00 in Snow Light Snow
10:03 AM 26.6 °F 19.1 °F 24.8 °F 93% 30.04 in 4.0 mi NE 6.9 mph - N/A Snow Light Snow
10:18 AM 26.6 °F 19.1 °F 24.8 °F 93% 30.04 in 3.0 mi NNE 6.9 mph - N/A Snow Light Snow
10:33 AM 26.6 °F 20.0 °F 24.8 °F 93% 30.04 in 6.0 mi NE 5.8 mph - N/A Snow Light Snow
10:48 AM 28.4 °F 22.2 °F 26.6 °F 93% 30.04 in 9.0 mi NE 5.8 mph - N/A Snow Light Snow
10:54 AM 28.4 °F 22.2 °F 26.6 °F 93% 30.04 in 10.0 mi NE 5.8 mph - N/A   Overcast
10:58 AM 28.4 °F 21.2 °F 26.6 °F 93% 30.10 in 10.0 mi ENE 6.9 mph - 0.00 in   Overcast
11:01 AM 28.4 °F 22.2 °F 26.6 °F 93% 30.04 in 10.0 mi NE 5.8 mph - N/A Snow Light Snow
11:05 AM 28.4 °F 22.2 °F 26.6 °F 93% 30.04 in 10.0 mi NE 5.8 mph - N/A   Overcast
11:58 AM 30.7 °F 26.0 °F 28.0 °F 90% 30.09 in 10.0 mi ENE 4.6 mph - 0.00 in   Overcast
12:09 PM 32.0 °F 27.5 °F 28.4 °F 87% 30.03 in 10.0 mi East 4.6 mph - N/A   Overcast
12:44 PM 32.0 °F 26.4 °F 28.4 °F 87% 30.03 in 2.5 mi East 5.8 mph - N/A Snow Light Snow
12:58 PM 31.5 °F 26.8 °F 29.1 °F 91% 30.09 in 3.0 mi ENE 4.6 mph - 0.00 in Snow Light Snow
1:43 PM 32.0 °F 27.5 °F 30.2 °F 93% 30.02 in 2.5 mi North 4.6 mph - N/A Snow Light Snow
1:44 PM 32.0 °F 27.5 °F 30.2 °F 93% 30.02 in 2.5 mi North 4.6 mph - N/A Snow Light Snow
1:54 PM 32.0 °F 25.6 °F 32.0 °F 100% 30.02 in 4.0 mi North 6.9 mph - N/A Snow Light Snow
1:58 PM 32.2 °F 26.7 °F 30.4 °F 93% 30.08 in 6.0 mi North 5.8 mph - 0.00 in Snow Light Snow
2:13 PM 32.0 °F 24.8 °F 32.0 °F 100% 30.02 in 5.0 mi NNW 8.1 mph - N/A Snow Light Snow
2:23 PM 32.0 °F 24.8 °F 30.2 °F 93% 30.02 in 5.0 mi North 8.1 mph - N/A Snow Light Snow
2:48 PM 32.0 °F 24.8 °F 32.0 °F 100% 30.01 in 2.5 mi North 8.1 mph - N/A Snow Light Snow
2:53 PM 32.0 °F 24.2 °F 30.2 °F 93% 30.01 in 3.0 mi North 9.2 mph - N/A Snow Light Snow
2:58 PM 31.3 °F 23.9 °F 30.2 °F 96% 30.07 in 3.0 mi North 8.1 mph - 0.00 in Snow Light Snow
3:58 PM 31.1 °F 23.1 °F 30.4 °F 97% 30.07 in 4.0 mi North 9.2 mph - 0.00 in Snow Light Snow
4:18 PM 32.0 °F 23.6 °F 30.2 °F 93% 30.00 in 4.0 mi North 10.4 mph - N/A Snow Light Snow
4:58 PM 30.2 °F 21.9 °F 29.5 °F 97% 30.06 in 6.0 mi North 9.2 mph - 0.00 in Snow Light Snow
5:58 PM 29.5 °F 20.4 °F 28.9 °F 98% 30.06 in 8.0 mi North 10.4 mph - 0.00 in   Overcast
6:58 PM 29.3 °F 20.2 °F 29.1 °F 99% 30.08 in 6.0 mi North 10.4 mph - 0.00 in   Overcast
7:58 PM 28.8 °F 19.5 °F 28.6 °F 99% 30.09 in 8.0 mi North 10.4 mph - 0.00 in   Overcast
8:13 PM 28.4 °F 19.7 °F 28.4 °F 100% 30.03 in 8.0 mi North 9.2 mph - N/A   Overcast
8:58 PM 28.4 °F 19.7 °F 28.2 °F 99% 30.09 in 10.0 mi North 9.2 mph - 0.00 in   Overcast
9:03 PM 28.4 °F 19.1 °F 28.4 °F 100% 30.03 in 10.0 mi North 10.4 mph - N/A   Overcast
9:08 PM 28.4 °F 19.1 °F 28.4 °F 100% 30.04 in 10.0 mi North 10.4 mph - N/A   Overcast
9:18 PM 28.4 °F 18.5 °F 28.4 °F 100% 30.04 in 9.0 mi North 11.5 mph - N/A   Overcast
9:33 PM 28.4 °F 18.5 °F 28.4 °F 100% 30.04 in 9.0 mi NNE 11.5 mph - N/A   Overcast
10:58 PM 28.0 °F 17.5 °F 27.5 °F 98% 30.10 in 7.0 mi North 12.7 mph - 0.00 in   Overcast
11:03 PM 28.4 °F 18.0 °F 28.4 °F 100% 30.03 in 8.0 mi North 12.7 mph - N/A   Overcast
11:08 PM 28.4 °F 17.5 °F 26.6 °F 93% 30.03 in 8.0 mi North 13.8 mph - N/A   Overcast
11:43 PM 28.4 °F 17.5 °F 26.6 °F 93% 30.03 in 10.0 mi North 13.8 mph - N/A   Overcast
11:58 PM 27.9 °F 16.3 °F 27.3 °F 98% 30.07 in 10.0 mi North 15.0 mph - 0.00 in   Overcast